• In Österreich
  • Länderverzeichnis
  • Für 7 Tage
  • Wassertemperatur
  • Satellitenkarten
  • Wetterkarte
  • News
  • Widgets
  • user-avatar
    Anmelden

    Stündliche Wetter Stepanakert

    Heute, 16 Oktober, Dienstag

    Zeit Temperatur Niederschläge Wind Luftdruck Luftfeuchtigkeit
    00:00 +13°C° 0 mm 2 m/S 698 mmHg 83%
    01:00 +13°C° 0 mm 2 m/S 698 mmHg 84%
    02:00 +13°C° 0 mm 1 m/S 699 mmHg 86%
    03:00 +13°C° 0 mm 1 m/S 698 mmHg 87%
    04:00 +13°C° 0 mm 1 m/S 699 mmHg 88%
    05:00 +13°C° 0 mm 1 m/S 699 mmHg 88%
    06:00 +13°C° 0 mm 1 m/S 699 mmHg 88%
    07:00 +13°C° 0.1 mm 1 m/S 699 mmHg 84%
    08:00 +14°C° 0.1 mm 2 m/S 700 mmHg 80%
    09:00 +15°C° 0 mm 2 m/S 700 mmHg 73%
    10:00 +16°C° 0 mm 2 m/S 700 mmHg 69%
    11:00 +17°C° 0 mm 2 m/S 700 mmHg 65%
    12:00 +18°C° 0 mm 2 m/S 700 mmHg 61%
    13:00 +18°C° 0 mm 2 m/S 700 mmHg 61%
    14:00 +18°C° 0 mm 2 m/S 699 mmHg 61%
    15:00 +18°C° 0 mm 2 m/S 699 mmHg 61%
    16:00 +17°C° 0 mm 2 m/S 699 mmHg 66%
    17:00 +16°C° 0 mm 2 m/S 699 mmHg 70%
    18:00 +15°C° 0 mm 2 m/S 699 mmHg 75%
    19:00 +15°C° 0 mm 1 m/S 699 mmHg 78%
    20:00 +15°C° 0 mm 1 m/S 699 mmHg 81%
    21:00 +14°C° 0 mm 1 m/S 699 mmHg 84%
    22:00 +14°C° 0 mm 1 m/S 699 mmHg 85%
    23:00 +13°C° 0 mm 1 m/S 699 mmHg 87%

    Morgen, 17 Oktober, Mittwoch

    Zeit Temperatur Niederschläge Wind Luftdruck Luftfeuchtigkeit
    00:00 +13°C° 0 mm 1 m/S 699 mmHg 89%
    01:00 +13°C° 0 mm 1 m/S 699 mmHg 89%
    02:00 +12°C° 0 mm 1 m/S 699 mmHg 90%
    03:00 +12°C° 0 mm 1 m/S 699 mmHg 91%
    04:00 +11°C° 0 mm 0 m/S 699 mmHg 91%
    05:00 +11°C° 0 mm 0 m/S 699 mmHg 90%
    06:00 +11°C° 0 mm 0 m/S 699 mmHg 90%
    07:00 +13°C° 0 mm 1 m/S 699 mmHg 85%
    08:00 +14°C° 0 mm 1 m/S 699 mmHg 79%
    09:00 +15°C° 0 mm 2 m/S 699 mmHg 74%
    10:00 +16°C° 0 mm 2 m/S 699 mmHg 70%
    11:00 +17°C° 0 mm 2 m/S 699 mmHg 66%
    12:00 +18°C° 0 mm 2 m/S 699 mmHg 62%
    13:00 +18°C° 0 mm 2 m/S 699 mmHg 62%
    14:00 +18°C° 0 mm 2 m/S 698 mmHg 62%
    15:00 +18°C° 0 mm 2 m/S 698 mmHg 62%
    16:00 +17°C° 0 mm 2 m/S 698 mmHg 68%
    17:00 +16°C° 0 mm 1 m/S 697 mmHg 73%
    18:00 +15°C° 0 mm 1 m/S 697 mmHg 79%
    19:00 +14°C° 0 mm 1 m/S 697 mmHg 80%
    20:00 +14°C° 0 mm 1 m/S 697 mmHg 81%
    21:00 +13°C° 0 mm 0 m/S 697 mmHg 82%
    22:00 +13°C° 0 mm 1 m/S 697 mmHg 82%
    23:00 +13°C° 0 mm 1 m/S 697 mmHg 83%

    übermorgen, 18 Oktober, Donnerstag

    Zeit Temperatur Niederschläge Wind Luftdruck Luftfeuchtigkeit
    00:00 +13°C° 0 mm 1 m/S 697 mmHg 83%
    01:00 +13°C° 0 mm 1 m/S 697 mmHg 82%
    02:00 +13°C° 0 mm 1 m/S 696 mmHg 82%
    03:00 +12°C° 0 mm 1 m/S 696 mmHg 81%
    04:00 +12°C° 0 mm 1 m/S 696 mmHg 80%
    05:00 +12°C° 0 mm 1 m/S 696 mmHg 79%
    06:00 +12°C° 0 mm 1 m/S 696 mmHg 78%
    07:00 +14°C° 0 mm 1 m/S 696 mmHg 71%
    08:00 +16°C° 0 mm 1 m/S 697 mmHg 64%
    09:00 +19°C° 0 mm 1 m/S 697 mmHg 57%
    10:00 +20°C° 0 mm 1 m/S 697 mmHg 53%
    11:00 +20°C° 0 mm 2 m/S 697 mmHg 50%
    12:00 +21°C° 0 mm 2 m/S 697 mmHg 46%
    13:00 +21°C° 0 mm 2 m/S 696 mmHg 46%
    14:00 +21°C° 0 mm 2 m/S 696 mmHg 47%
    15:00 +21°C° 0 mm 2 m/S 696 mmHg 47%
    16:00 +20°C° 0 mm 2 m/S 696 mmHg 54%
    17:00 +18°C° 0 mm 2 m/S 696 mmHg 61%
    18:00 +16°C° 0 mm 1 m/S 696 mmHg 68%
    19:00 +16°C° 0 mm 1 m/S 696 mmHg 70%
    20:00 +16°C° 0 mm 1 m/S 696 mmHg 72%
    21:00 +15°C° 0 mm 1 m/S 696 mmHg 73%
    22:00 +15°C° 0 mm 1 m/S 696 mmHg 74%
    23:00 +14°C° 0 mm 1 m/S 696 mmHg 75%

    19 Oktober, Freitag

    Zeit Temperatur Niederschläge Wind Luftdruck Luftfeuchtigkeit
    00:00 +14°C° 0 mm 1 m/S 696 mmHg 76%
    01:00 +14°C° 0 mm 1 m/S 696 mmHg 77%
    02:00 +13°C° 0 mm 1 m/S 696 mmHg 78%
    03:00 +13°C° 0 mm 1 m/S 696 mmHg 79%
    04:00 +13°C° 0 mm 1 m/S 696 mmHg 78%
    05:00 +13°C° 0 mm 1 m/S 696 mmHg 78%
    06:00 +12°C° 0 mm 1 m/S 696 mmHg 78%
    07:00 +14°C° 0 mm 1 m/S 697 mmHg 72%
    08:00 +16°C° 0 mm 1 m/S 697 mmHg 66%
    09:00 +18°C° 0 mm 1 m/S 698 mmHg 60%
    10:00 +19°C° 0 mm 2 m/S 697 mmHg 56%
    11:00 +20°C° 0 mm 2 m/S 697 mmHg 53%
    12:00 +21°C° 0 mm 2 m/S 697 mmHg 49%
    13:00 +21°C° 0 mm 2 m/S 696 mmHg 50%
    14:00 +21°C° 0 mm 2 m/S 696 mmHg 50%
    15:00 +21°C° 0 mm 2 m/S 696 mmHg 50%
    16:00 +19°C° 0 mm 2 m/S 696 mmHg 57%
    17:00 +19°C° 0 mm 1 m/S 696 mmHg 64%
    18:00 +16°C° 0 mm 1 m/S 696 mmHg 71%
    19:00 +16°C° 0 mm 1 m/S 696 mmHg 72%
    20:00 +16°C° 0 mm 1 m/S 696 mmHg 73%
    21:00 +15°C° 0 mm 1 m/S 696 mmHg 74%
    22:00 +15°C° 0 mm 1 m/S 696 mmHg 74%
    23:00 +15°C° 0 mm 1 m/S 696 mmHg 74%

    20 Oktober, Samstag

    Zeit Temperatur Niederschläge Wind Luftdruck Luftfeuchtigkeit
    00:00 +14°C° 0 mm 1 m/S 695 mmHg 74%
    01:00 +14°C° 0 mm 1 m/S 695 mmHg 74%
    02:00 +14°C° 0 mm 1 m/S 695 mmHg 74%
    03:00 +14°C° 0 mm 1 m/S 695 mmHg 74%
    04:00 +13°C° 0 mm 1 m/S 695 mmHg 73%
    05:00 +13°C° 0 mm 1 m/S 695 mmHg 73%
    06:00 +13°C° 0 mm 1 m/S 695 mmHg 72%
    07:00 +15°C° 0 mm 1 m/S 695 mmHg 67%
    08:00 +18°C° 0 mm 1 m/S 695 mmHg 61%
    09:00 +20°C° 0 mm 1 m/S 696 mmHg 56%
    10:00 +20°C° 0 mm 2 m/S 695 mmHg 52%
    11:00 +21°C° 0 mm 2 m/S 695 mmHg 49%
    12:00 +23°C° 0 mm 2 m/S 695 mmHg 46%
    13:00 +23°C° 0 mm 2 m/S 694 mmHg 46%
    14:00 +23°C° 0 mm 2 m/S 694 mmHg 46%
    15:00 +23°C° 0 mm 2 m/S 693 mmHg 47%
    16:00 +21°C° 0 mm 2 m/S 693 mmHg 54%
    17:00 +20°C° 0 mm 1 m/S 693 mmHg 60%
    18:00 +19°C° 0 mm 1 m/S 693 mmHg 67%
    19:00 +18°C° 0 mm 1 m/S 693 mmHg 66%
    20:00 +18°C° 0 mm 1 m/S 693 mmHg 65%
    21:00 +18°C° 0 mm 1 m/S 693 mmHg 64%
    22:00 +18°C° 0 mm 1 m/S 693 mmHg 63%
    23:00 +16°C° 0 mm 1 m/S 693 mmHg 63%

    21 Oktober, Sonntag

    Zeit Temperatur Niederschläge Wind Luftdruck Luftfeuchtigkeit
    00:00 +16°C° 0 mm 1 m/S 693 mmHg 62%
    01:00 +16°C° 0 mm 1 m/S 693 mmHg 62%
    02:00 +16°C° 0 mm 1 m/S 692 mmHg 62%
    03:00 +16°C° 0 mm 1 m/S 692 mmHg 62%
    04:00 +15°C° 0 mm 1 m/S 692 mmHg 63%
    05:00 +15°C° 0 mm 1 m/S 693 mmHg 63%
    06:00 +15°C° 0 mm 1 m/S 693 mmHg 64%
    07:00 +18°C° 0 mm 1 m/S 693 mmHg 58%
    08:00 +20°C° 0 mm 1 m/S 693 mmHg 52%
    09:00 +22°C° 0 mm 1 m/S 694 mmHg 46%
    10:00 +21°C° 0 mm 2 m/S 693 mmHg 42%
    11:00 +23°C° 0 mm 2 m/S 693 mmHg 39%
    12:00 +24°C° 0 mm 2 m/S 693 mmHg 36%
    13:00 +24°C° 0 mm 2 m/S 693 mmHg 36%
    14:00 +24°C° 0 mm 2 m/S 693 mmHg 36%
    15:00 +24°C° 0 mm 2 m/S 692 mmHg 36%
    16:00 +23°C° 0 mm 2 m/S 692 mmHg 42%
    17:00 +21°C° 0 mm 1 m/S 692 mmHg 47%
    18:00 +17°C° 0 mm 0 m/S 692 mmHg 53%
    19:00 +19°C° 0 mm 1 m/S 692 mmHg 53%
    20:00 +19°C° 0 mm 1 m/S 693 mmHg 54%
    21:00 +19°C° 0 mm 1 m/S 693 mmHg 55%
    22:00 +18°C° 0 mm 1 m/S 693 mmHg 56%
    23:00 +18°C° 0 mm 1 m/S 693 mmHg 57%
    Mehr zeigen